• în Republica Moldova
  • Lista ţărilor
  • Pe 7 zile
  • Temperatura apei
  • Hartă satelitară
  • Meteo pe hartă
  • Widget-uri
  • user-avatar
    Intrare

    Meteo pe oră la Durres

    Astăzi, 23 Aprilie, Duminică

    Timp Temperatura Precipitaţii Vânt Presiune Umiditate
    00:00 +6°C° 0 mm 2 m/s 762 mmHg 74%
    01:00 +5°C° 0 mm 2 m/s 762 mmHg 72%
    02:00 +5°C° 0 mm 2 m/s 762 mmHg 71%
    03:00 +5°C° 0 mm 2 m/s 762 mmHg 70%
    04:00 +6°C° 0 mm 1 m/s 761 mmHg 69%
    05:00 +7°C° 0 mm 2 m/s 762 mmHg 62%
    06:00 +9°C° 0 mm 2 m/s 762 mmHg 56%
    07:00 +12°C° 0 mm 2 m/s 762 mmHg 49%
    08:00 +14°C° 0 mm 2 m/s 762 mmHg 48%
    09:00 +15°C° 0 mm 2 m/s 762 mmHg 47%
    10:00 +17°C° 0 mm 2 m/s 762 mmHg 46%
    11:00 +17°C° 0 mm 2 m/s 762 mmHg 46%
    12:00 +18°C° 0 mm 3 m/s 762 mmHg 46%
    13:00 +18°C° 0 mm 3 m/s 762 mmHg 46%
    14:00 +18°C° 0 mm 3 m/s 762 mmHg 48%
    15:00 +18°C° 0 mm 2 m/s 762 mmHg 50%
    16:00 +17°C° 0 mm 2 m/s 762 mmHg 52%
    17:00 +15°C° 0 mm 2 m/s 763 mmHg 62%
    18:00 +13°C° 0 mm 2 m/s 763 mmHg 71%
    19:00 +11°C° 0 mm 1 m/s 763 mmHg 80%
    20:00 +11°C° 0 mm 1 m/s 764 mmHg 80%
    21:00 +9°C° 0 mm 2 m/s 764 mmHg 80%
    22:00 +9°C° 0 mm 2 m/s 765 mmHg 80%
    23:00 +9°C° 0 mm 2 m/s 765 mmHg 79%

    Mâine, 24 Aprilie, Luni

    Timp Temperatura Precipitaţii Vânt Presiune Umiditate
    00:00 +9°C° 0 mm 2 m/s 765 mmHg 79%
    01:00 +8°C° 0 mm 2 m/s 765 mmHg 78%
    02:00 +8°C° 0 mm 2 m/s 765 mmHg 77%
    03:00 +8°C° 0 mm 3 m/s 765 mmHg 75%
    04:00 +8°C° 0 mm 3 m/s 765 mmHg 74%
    05:00 +10°C° 0 mm 3 m/s 765 mmHg 69%
    06:00 +12°C° 0 mm 3 m/s 765 mmHg 64%
    07:00 +14°C° 0 mm 3 m/s 765 mmHg 60%
    08:00 +17°C° 0 mm 2 m/s 765 mmHg 54%
    09:00 +19°C° 0 mm 2 m/s 765 mmHg 49%
    10:00 +22°C° 0 mm 1 m/s 765 mmHg 44%
    11:00 +21°C° 0 mm 2 m/s 765 mmHg 44%
    12:00 +21°C° 0 mm 2 m/s 765 mmHg 43%
    13:00 +21°C° 0 mm 2 m/s 765 mmHg 43%
    14:00 +21°C° 0 mm 2 m/s 764 mmHg 46%
    15:00 +20°C° 0 mm 2 m/s 764 mmHg 49%
    16:00 +20°C° 0 mm 2 m/s 764 mmHg 52%
    17:00 +17°C° 0 mm 2 m/s 764 mmHg 63%
    18:00 +15°C° 0 mm 2 m/s 764 mmHg 73%
    19:00 +12°C° 0 mm 1 m/s 764 mmHg 84%
    20:00 +12°C° 0 mm 2 m/s 764 mmHg 84%
    21:00 +12°C° 0 mm 2 m/s 764 mmHg 85%
    22:00 +10°C° 0 mm 2 m/s 765 mmHg 85%
    23:00 +10°C° 0 mm 2 m/s 765 mmHg 84%

    Poimâine, 25 Aprilie, Marţi

    Timp Temperatura Precipitaţii Vânt Presiune Umiditate
    00:00 +10°C° 0 mm 3 m/s 764 mmHg 84%
    01:00 +10°C° 0 mm 3 m/s 764 mmHg 83%
    02:00 +10°C° 0 mm 3 m/s 764 mmHg 84%
    03:00 +10°C° 0 mm 4 m/s 764 mmHg 84%
    04:00 +10°C° 0 mm 4 m/s 764 mmHg 84%
    05:00 +12°C° 0 mm 4 m/s 764 mmHg 77%
    06:00 +13°C° 0 mm 4 m/s 764 mmHg 70%
    07:00 +15°C° 0 mm 4 m/s 764 mmHg 63%
    08:00 +17°C° 0 mm 5 m/s 764 mmHg 57%
    09:00 +19°C° 0 mm 5 m/s 764 mmHg 51%
    10:00 +21°C° 0 mm 5 m/s 764 mmHg 45%
    11:00 +21°C° 0 mm 5 m/s 763 mmHg 44%
    12:00 +22°C° 0 mm 6 m/s 763 mmHg 43%
    13:00 +22°C° 0 mm 7 m/s 763 mmHg 42%
    14:00 +21°C° 0 mm 7 m/s 763 mmHg 45%
    15:00 +21°C° 0 mm 7 m/s 762 mmHg 48%
    16:00 +20°C° 0 mm 7 m/s 762 mmHg 51%
    17:00 +17°C° 0 mm 6 m/s 762 mmHg 60%
    18:00 +15°C° 0 mm 6 m/s 762 mmHg 69%
    19:00 +13°C° 0 mm 5 m/s 762 mmHg 77%
    20:00 +12°C° 0 mm 5 m/s 762 mmHg 79%
    21:00 +12°C° 0 mm 5 m/s 763 mmHg 81%
    22:00 +10°C° 0 mm 5 m/s 763 mmHg 83%
    23:00 +11°C° 0 mm 4 m/s 763 mmHg 82%

    26 Aprilie, Miercuri

    Timp Temperatura Precipitaţii Vânt Presiune Umiditate
    00:00 +11°C° 0 mm 4 m/s 762 mmHg 82%
    01:00 +10°C° 0 mm 4 m/s 762 mmHg 82%
    02:00 +10°C° 0 mm 4 m/s 762 mmHg 80%
    03:00 +10°C° 0 mm 4 m/s 762 mmHg 79%
    04:00 +10°C° 0 mm 4 m/s 762 mmHg 77%
    05:00 +12°C° 0 mm 4 m/s 761 mmHg 70%
    06:00 +14°C° 0 mm 4 m/s 761 mmHg 64%
    07:00 +15°C° 0 mm 4 m/s 761 mmHg 57%
    08:00 +18°C° 0 mm 4 m/s 761 mmHg 48%
    09:00 +20°C° 0 mm 4 m/s 761 mmHg 40%
    10:00 +22°C° 0 mm 4 m/s 761 mmHg 31%
    11:00 +23°C° 0 mm 5 m/s 761 mmHg 30%
    12:00 +23°C° 0 mm 6 m/s 761 mmHg 30%
    13:00 +24°C° 0 mm 7 m/s 760 mmHg 29%
    14:00 +23°C° 0 mm 7 m/s 760 mmHg 32%
    15:00 +23°C° 0 mm 7 m/s 760 mmHg 35%
    16:00 +23°C° 0 mm 7 m/s 760 mmHg 38%
    17:00 +20°C° 0 mm 6 m/s 760 mmHg 48%
    18:00 +17°C° 0 mm 6 m/s 760 mmHg 58%
    19:00 +14°C° 0 mm 5 m/s 760 mmHg 68%
    20:00 +14°C° 0 mm 5 m/s 760 mmHg 68%
    21:00 +14°C° 0 mm 5 m/s 761 mmHg 68%
    22:00 +13°C° 0 mm 5 m/s 761 mmHg 69%
    23:00 +13°C° 0 mm 4 m/s 761 mmHg 67%

    27 Aprilie, Joi

    Timp Temperatura Precipitaţii Vânt Presiune Umiditate
    00:00 +13°C° 0 mm 4 m/s 761 mmHg 65%
    01:00 +13°C° 0 mm 4 m/s 760 mmHg 63%
    02:00 +13°C° 0 mm 5 m/s 760 mmHg 62%
    03:00 +14°C° 0 mm 5 m/s 760 mmHg 60%
    04:00 +14°C° 0 mm 5 m/s 760 mmHg 59%
    05:00 +15°C° 0 mm 5 m/s 759 mmHg 56%
    06:00 +17°C° 0 mm 5 m/s 759 mmHg 53%
    07:00 +20°C° 0 mm 5 m/s 759 mmHg 50%
    08:00 +21°C° 0 mm 5 m/s 759 mmHg 44%
    09:00 +23°C° 0 mm 5 m/s 759 mmHg 39%
    10:00 +26°C° 0 mm 5 m/s 759 mmHg 33%
    11:00 +26°C° 0 mm 6 m/s 759 mmHg 33%
    12:00 +27°C° 0 mm 7 m/s 759 mmHg 33%
    13:00 +27°C° 0 mm 7 m/s 758 mmHg 34%
    14:00 +26°C° 0 mm 7 m/s 758 mmHg 36%
    15:00 +24°C° 0 mm 7 m/s 758 mmHg 37%
    16:00 +24°C° 0 mm 7 m/s 758 mmHg 39%
    17:00 +22°C° 0 mm 7 m/s 758 mmHg 45%
    18:00 +20°C° 0 mm 6 m/s 758 mmHg 51%
    19:00 +17°C° 0 mm 6 m/s 758 mmHg 57%
    20:00 +17°C° 0 mm 6 m/s 758 mmHg 56%
    21:00 +17°C° 0 mm 6 m/s 758 mmHg 55%
    22:00 +16°C° 0 mm 6 m/s 758 mmHg 55%
    23:00 +16°C° 0 mm 6 m/s 758 mmHg 56%

    28 Aprilie, Vineri

    Timp Temperatura Precipitaţii Vânt Presiune Umiditate
    00:00 +16°C° 0 mm 5 m/s 757 mmHg 57%
    01:00 +16°C° 0 mm 5 m/s 757 mmHg 58%
    02:00 +16°C° 0 mm 5 m/s 757 mmHg 57%
    03:00 +15°C° 0 mm 6 m/s 757 mmHg 57%
    04:00 +15°C° 0 mm 6 m/s 757 mmHg 56%
    05:00 +16°C° 0,4 mm 6 m/s 757 mmHg 54%
    06:00 +17°C° 0,4 mm 7 m/s 757 mmHg 52%
    07:00 +18°C° 0,4 mm 7 m/s 757 mmHg 50%
    08:00 +18°C° 0,6 mm 7 m/s 757 mmHg 53%
    09:00 +19°C° 0,6 mm 6 m/s 756 mmHg 55%
    10:00 +19°C° 0,6 mm 6 m/s 756 mmHg 58%
    11:00 +18°C° 0,9 mm 7 m/s 756 mmHg 59%
    12:00 +18°C° 0,9 mm 7 m/s 756 mmHg 60%
    13:00 +18°C° 0,9 mm 8 m/s 756 mmHg 61%
    14:00 +17°C° 2,5 mm 7 m/s 756 mmHg 69%
    15:00 +16°C° 2,5 mm 6 m/s 756 mmHg 76%
    16:00 +15°C° 2,5 mm 5 m/s 756 mmHg 84%
    17:00 +15°C° 2,1 mm 5 m/s 755 mmHg 84%
    18:00 +14°C° 2,1 mm 4 m/s 755 mmHg 85%
    19:00 +14°C° 2,1 mm 4 m/s 755 mmHg 86%
    20:00 +14°C° 3,4 mm 4 m/s 755 mmHg 88%
    21:00 +14°C° 3,4 mm 3 m/s 755 mmHg 91%
    22:00 +13°C° 3,4 mm 3 m/s 755 mmHg 93%
    23:00 +13°C° 2,1 mm 3 m/s 755 mmHg 94%
    Arată mai mult